Regional Weather Roundup
Issued by NWS New Orleans/Baton Rouge, LA

Home | Current Version | Previous Version | Text Only | Print | Product List | Glossary On
Versions: 1 2 3 4 5 6 7 8 9 10 11 12 13 14 15 16 17 18 19 20 21 22 23 24 25 26 27 28 29 30 31 32 33 34 35 36 37 38 39 40 41 42 43 44 45 46 47 48 49 50
000
ASUS44 KLIX 261407
RWRLIX
NEW ORLEANS REGIONAL WEATHER ROUNDUP
NATIONAL WEATHER SERVICE NEW ORLEANS LA
900 AM CDT TUE MAY 26 2015

NOTE: "FAIR" INDICATES FEW OR NO CLOUDS BELOW 12,000 FEET WITH NO
      SIGNIFICANT WEATHER AND/OR OBSTRUCTIONS TO VISIBILITY.
      SKY/WX - SKY CONDITION AND SIGNIFICANT WEATHER.
      TMP - AIR TEMPERATURE.     DP    - DEWPOINT TEMPERATURE.
      RH  - RELATIVE HUMIDITY.   PRES  - PRESSURE.
      HI  - HEAT INDEX.          WCI   - WIND CHILL INDEX.

*  THESE STATIONS ARE NOT NWS OR FAA STATIONS AND ARE NOT UNDER
   NWS QUALITY CONTROL.

LAZ038-040-048-061>063-065>067-069-261500-
SOUTHEAST LOUISIANA

CITY           SKY/WX    TMP DP  RH WIND       PRES   REMARKS
N.O. AUDUBON   NOT AVBL
N.O. INTL ARPT LGT RAIN  70  64  81 NE7       30.10F
N.O. LAKEFRONT CLOUDY    73  64  73 NE13      30.10F
SLIDELL        CLOUDY    66  66 100 E3        30.09F
BATON ROUGE    CLOUDY    67  64  90 E7        30.04S
BOOTHVILLE     LGT RAIN  72  66  81 N10       30.14F
BELLE CHASSE   CLOUDY    68  62  81 E8        30.09F
BOGALUSA*        N/A     67  63  86 CALM      30.13F
GALLIANO*      DRIZZLE   70  65  84 MISG      30.12S
NEW ROADS*       N/A     67  64  89 CALM      30.07R
GONZALES*        N/A     67  67  99 E5        30.06S
HAMMOND*       CLOUDY    66  63  88 E6        30.10F
HOUMA*         MOSUNNY   66  64  94 E9        30.10S
PORT FOURCHON* SUNNY     70  64  83 NE12      30.13R

$$

MSZ070-080>082-261500-
SOUTHERN MISSISSIPPI

CITY           SKY/WX    TMP DP  RH WIND       PRES   REMARKS
MCCOMB         CLOUDY    64  64 100 SE6       30.05F
GULFPORT       CLOUDY    68  64  87 NE8       30.11F
BILOXI         CLOUDY    68  65  90 NE9       30.12F
PASCAGOULA     CLOUDY    67  65  93 N8        30.16R
STENNIS ARPT*  PTSUNNY   66  61  82 MISG      30.11F

$$

COASTAL OBSERVATIONS
LAKE AND NEARSHORE STATIONS

STATION/POSITION TIME  TEMP    WIND        PRES    WAVE
                       AIR SEA DIR/SP/G            HT/PER
                 (UTC) (F)     (DEG/KT/KT) (MB)    (FT/S)
PASCAGOULA       1300   68     350/ 13/ 18 1020.1
WAVELAND YACHT   1300   68 77   10/ 12/ 15 1020.4
GRAND ISLE       1300   71 82   10/ 18/ 22 1020.0
SOUTHWEST PASS   1300   72 74  360/ 22/ 24 1020.8
NEW CANAL        1300   70 79   40/ 11/ 14 1019.0
SHELL BEACH      1300   70 80  350/ 16/ 18 1019.6

OFFSHORE STATIONS

STATION/POSITION TIME  TEMP    WIND        PRES    WAVE
                       AIR SEA DIR/SP/G            HT/PER
                 (UTC) (F)     (DEG/KT/KT) (MB)    (FT/S)
64 S DAUPHIN ISL 1350   81 80  190/ 12/ 12 1020.0    4/ 6

$$



USA.gov is the U.S. government's official web portal to all federal, state and local government web resources and services.